World > North America > United States > California
Hourly Weather in East Rancho Dominguez, CaliforniaEast Rancho Dominguez, California Hourly Weather

East Rancho Dominguez, CA Hourly Weather

Hourly Weather East Rancho Dominguez, CaliforniaHourly Weather in East Rancho Dominguez, CA
Lat: 33.90N, Lon: 118.2W  ICAO: KLGB
Web Search

Ads allow us to feed your daily addiction for the world's greatest weather information. We're determined to offer quality sponsors, in the least annoying way possible.

Feedback

East Rancho Dominguez Hourly Weather

36 Hour Weather Scroll   °F Click to change East Rancho Dominguez hourly weather to Imperial units.Click to change East Rancho Dominguez hourly weather to Metric units. °C
Currently, Clear, temperature is 59°F15°C, dew point 45°F7°C, humidity 60%. Wind direction is N at 0 mph0 km/h with visibility of 10.00 mi16 km. Barometric pressure is 29.97 in1015 mb.

Oct 17
2:00 AM

Oct 17
3:00 AM

Oct 17
4:00 AM

Oct 17
5:00 AM

Oct 17
6:00 AM

Oct 17
7:00 AM

Oct 17
8:00 AM

Oct 17
9:00 AM

Oct 17
10:00 AM

Oct 17
11:00 AM

Oct 17
NOON

Oct 17
1:00 PM

Oct 17
2:00 PM

Oct 17
3:00 PM

Oct 17
4:00 PM

Oct 17
5:00 PM

Oct 17
6:00 PM

Oct 17
7:00 PM

Oct 17
8:00 PM

Oct 17
9:00 PM

Oct 17
10:00 PM

Oct 17
11:00 PM

Oct 18
MIDNIGHT

Oct 18
1:00 AM

Oct 18
2:00 AM

Oct 18
3:00 AM

Oct 18
4:00 AM

Oct 18
5:00 AM

Oct 18
6:00 AM

Oct 18
7:00 AM

Oct 18
8:00 AM

Oct 18
9:00 AM

Oct 18
10:00 AM

Oct 18
11:00 AM

Oct 18
NOON

Oct 18
1:00 PM
Clear Clear Mostly Clear Mostly Clear Mostly Clear Partly Cloudy Partly Cloudy Partly Cloudy Mostly Cloudy Mostly Cloudy Mostly Cloudy Clear Clear Clear Clear Clear Clear Clear Clear Clear Mostly Cloudy Mostly Cloudy Mostly Cloudy Cloudy Cloudy Cloudy Cloudy Cloudy Cloudy Mostly Cloudy Mostly Cloudy Mostly Cloudy Cloudy Cloudy Cloudy Mostly Cloudy
Clear Clear Mostly Clear Mostly Clear Mostly Clear Partly Cloudy Partly Cloudy Partly Cloudy Mostly Cloudy Mostly Cloudy Mostly Cloudy Clear Clear Clear Clear Clear Clear Clear Clear Clear Mostly Cloudy Mostly Cloudy Mostly Cloudy Cloudy Cloudy Cloudy Cloudy Cloudy Cloudy Mostly Cloudy Mostly Cloudy Mostly Cloudy Cloudy Cloudy Cloudy Mostly Cloudy
61°F16°C 60°F16°C 60°F16°C 59°F15°C 59°F15°C 60°F16°C 60°F16°C 64°F18°C 67°F19°C 71°F22°C 71°F22°C 72°F22°C 72°F22°C 72°F22°C 71°F22°C 71°F22°C 69°F21°C 68°F20°C 66°F19°C 66°F19°C 65°F18°C 65°F18°C 64°F18°C 64°F18°C 63°F17°C 62°F17°C 62°F17°C 61°F16°C 61°F16°C 61°F16°C 61°F16°C 63°F17°C 66°F19°C 68°F20°C 68°F20°C 68°F20°C
- - - - - - - - - - - - - - - - - - - - - - - - - - - - Rain Rain Rain Rain Rain Rain - -
0% 0% 0% 0% 0% 0% 0% 0% 0% 0% 0% 0% 0% 0% 0% 0% 0% 0% 0% 0% 0% 0% 6% 6% 6% 6% 6% 6% 36% 36% 36% 36% 36% 36% 13% 13%
45°F7°C 45°F7°C 44°F7°C 44°F7°C 44°F7°C 44°F7°C 44°F7°C 44°F7°C 44°F7°C 44°F7°C 44°F7°C 44°F7°C 44°F7°C 44°F7°C 45°F7°C 45°F7°C 47°F8°C 49°F9°C 51°F11°C 51°F11°C 52°F11°C 52°F11°C 52°F11°C 52°F11°C 52°F11°C 51°F11°C 51°F11°C 50°F10°C 50°F10°C 51°F11°C 51°F11°C 50°F10°C 50°F10°C 49°F9°C 48°F9°C 47°F8°C
56% 58% 55% 57% 57% 55% 55% 48% 43% 38% 38% 37% 37% 37% 39% 39% 45% 51% 58% 58% 63% 63% 65% 65% 67% 67% 67% 67% 67% 70% 70% 63% 56% 51% 49% 47%
SE SE SE SE SE SE SE SSE S SW SW SW SSE SW SW SSW SSW SSW SSW SSW SSW SSW SSW SSW SSW SSW SSW SSW SSW W W SSW SSW SSW SSW SSW
1 mph 1 mph 1 mph 1 mph 1 mph 2 mph 2 mph 2 mph 4 mph 4 mph 4 mph 8 mph 8 mph 8 mph 8 mph 8 mph 8 mph 5 mph 5 mph 5 mph 6 mph 6 mph 6 mph 4 mph 4 mph 4 mph 3 mph 3 mph 3 mph 5 mph 5 mph 5 mph 9 mph 9 mph 9 mph 10 mph
10 mi16 km 10 mi16 km 10 mi16 km 10 mi16 km 10 mi16 km 10 mi16 km 10 mi16 km 10 mi16 km 10 mi16 km 10 mi16 km 10 mi16 km 10 mi16 km 10 mi16 km 10 mi16 km 10 mi16 km 10 mi16 km 10 mi16 km 10 mi16 km 10 mi16 km 10 mi16 km 10 mi16 km 10 mi16 km 10 mi16 km 10 mi16 km 10 mi16 km 10 mi16 km 10 mi16 km 10 mi16 km 10 mi16 km 10 mi16 km 10 mi16 km 10 mi16 km 10 mi16 km 10 mi16 km 10 mi16 km 10 mi16 km
Hour (PDT)
Weather
Clouds
Temperature
Precip. Type
POP
Dewpoint
Humidity
Wind Direction
Wind Speed
Visibility
POP = Probability of Precipitation. ** Indicates missing data/values from model statistics.

24 Hour Forecast

Tonight - Mostly clear except for patchy low clouds and fog after midnight. Fog locally dense with visibility one quarter mile or less. Lows in the mid 50s to around 60.
Sunday - Areas of low clouds and fog in the morning then partly cloudy. Fog locally dense with visibility one quarter mile or less. Highs from the mid to upper 60s at The beaches to the mid 70s inland.

48 Hour Forecast API Feed


Sun, Oct 17
2:00 am

Sun, Oct 17
3:00 am

Sun, Oct 17
4:00 am

Sun, Oct 17
5:00 am

Sun, Oct 17
6:00 am

Sun, Oct 17
7:00 am

Sun, Oct 17
8:00 am

Sun, Oct 17
9:00 am

Sun, Oct 17
10:00 am

Sun, Oct 17
11:00 am

Sun, Oct 17
Noon

Sun, Oct 17
1:00 pm

Sun, Oct 17
2:00 pm

Sun, Oct 17
3:00 pm

Sun, Oct 17
4:00 pm

Sun, Oct 17
5:00 pm

Sun, Oct 17
6:00 pm

Sun, Oct 17
7:00 pm

Sun, Oct 17
8:00 pm

Sun, Oct 17
9:00 pm

Sun, Oct 17
10:00 pm

Sun, Oct 17
11:00 pm

Mon, Oct 18
Midnight

Mon, Oct 18
1:00 am

Mon, Oct 18
2:00 am

Mon, Oct 18
3:00 am

Mon, Oct 18
4:00 am

Mon, Oct 18
5:00 am

Mon, Oct 18
6:00 am

Mon, Oct 18
7:00 am

Mon, Oct 18
8:00 am

Mon, Oct 18
9:00 am

Mon, Oct 18
10:00 am

Mon, Oct 18
11:00 am

Mon, Oct 18
Noon

Mon, Oct 18
1:00 pm

Mon, Oct 18
2:00 pm

Mon, Oct 18
3:00 pm

Mon, Oct 18
4:00 pm

Mon, Oct 18
5:00 pm

Mon, Oct 18
6:00 pm

Mon, Oct 18
7:00 pm

Mon, Oct 18
8:00 pm

Mon, Oct 18
9:00 pm

Mon, Oct 18
10:00 pm

Mon, Oct 18
11:00 pm

Tue, Oct 19
Midnight

Tue, Oct 19
1:00 am
ClearClearClearClearClearClearSunnySunnySunnySunnySunnySunnySunnySunnySunnySunnySunnyClearClearClearClearClearClearClearClearPartly CloudyPartly CloudyClearPatchy Rain PossiblePatchy Rain PossibleLight Rain ShowerPatchy Rain PossiblePartly CloudyPatchy Rain PossiblePartly CloudyPatchy Rain PossiblePatchy Rain PossibleSunnySunnyPatchy Rain PossibleSunnyClearClearClearClearClearClearClear
Clear Clear Clear Clear Clear Clear Sunny Sunny Sunny Sunny Sunny Sunny Sunny Sunny Sunny Sunny Sunny Clear Clear Clear Clear Clear Clear Clear Clear Partly cloudy Partly cloudy Clear Patchy rain possible Patchy rain possible Light rain showers Patchy rain possible Partly cloudy Patchy rain possible Partly cloudy Patchy rain possible Patchy rain possible Sunny Sunny Patchy rain possible Sunny Clear Clear Clear Clear Clear Clear Clear
67°F
20°C
67°F
19°C
67°F
19°C
66°F
19°C
65°F
19°C
65°F
18°C
66°F
19°C
67°F
20°C
69°F
21°C
76°F
24°C
77°F
25°C
78°F
25°C
76°F
25°C
76°F
24°C
74°F
24°C
73°F
23°C
73°F
23°C
72°F
22°C
66°F
19°C
65°F
19°C
65°F
18°C
64°F
18°C
63°F
17°C
63°F
17°C
63°F
17°C
62°F
17°C
62°F
16°C
61°F
16°C
61°F
16°C
61°F
16°C
62°F
17°C
63°F
17°C
64°F
18°C
65°F
18°C
65°F
19°C
66°F
19°C
66°F
19°C
66°F
19°C
66°F
19°C
67°F
20°C
68°F
20°C
68°F
20°C
62°F
17°C
62°F
17°C
62°F
17°C
62°F
16°C
61°F
16°C
60°F
16°C
50°F
10°C
49°F
10°C
49°F
9°C
49°F
9°C
49°F
9°C
49°F
10°C
50°F
10°C
49°F
10°C
48°F
9°C
49°F
10°C
47°F
9°C
46°F
8°C
45°F
7°C
47°F
8°C
47°F
8°C
49°F
9°C
52°F
11°C
53°F
12°C
49°F
10°C
51°F
10°C
52°F
11°C
53°F
12°C
53°F
12°C
53°F
12°C
54°F
12°C
54°F
12°C
53°F
12°C
53°F
12°C
53°F
12°C
53°F
12°C
52°F
11°C
52°F
11°C
51°F
11°C
51°F
11°C
52°F
11°C
50°F
10°C
46°F
8°C
42°F
6°C
42°F
6°C
45°F
7°C
48°F
9°C
49°F
10°C
45°F
7°C
45°F
7°C
46°F
8°C
46°F
8°C
46°F
8°C
46°F
8°C
29.97 in
1015 mb
29.94 in
1014 mb
29.94 in
1014 mb
29.91 in
1013 mb
29.94 in
1014 mb
29.94 in
1014 mb
29.97 in
1015 mb
29.97 in
1015 mb
29.97 in
1015 mb
29.97 in
1015 mb
29.97 in
1015 mb
29.94 in
1014 mb
29.94 in
1014 mb
29.91 in
1013 mb
29.91 in
1013 mb
29.91 in
1013 mb
29.91 in
1013 mb
29.94 in
1014 mb
29.94 in
1014 mb
29.97 in
1015 mb
29.97 in
1015 mb
30 in
1016 mb
29.97 in
1015 mb
29.97 in
1015 mb
29.94 in
1014 mb
29.94 in
1014 mb
29.94 in
1014 mb
29.94 in
1014 mb
29.94 in
1014 mb
29.94 in
1014 mb
29.97 in
1015 mb
29.97 in
1015 mb
29.97 in
1015 mb
29.97 in
1015 mb
29.97 in
1015 mb
29.94 in
1014 mb
29.94 in
1014 mb
29.94 in
1014 mb
29.94 in
1014 mb
29.91 in
1013 mb
29.91 in
1013 mb
29.94 in
1014 mb
29.94 in
1014 mb
29.97 in
1015 mb
29.97 in
1015 mb
29.97 in
1015 mb
29.97 in
1015 mb
29.97 in
1015 mb
54%53%53%53%54%56%56%52%46%40%35%33%33%36%38%42%48%52%55%59%63%67%69%71%72%74%75%75%75%74%70%67%64%62%61%56%48%42%41%44%48%52%54%54%55%56%58%59%
SWSSSSESSWSWSWSSWSSWSSWSSWSWSWSWWSWWSWWSWWSWSWWSWWSWWSWWSWSWSWWSWSWWSWWSWWSWWSWWSWWSWSWSWWSWWSWWSWWSWWSWSWSWSWSSSESESESE
2 mph
3 km/h
2 mph
3 km/h
2 mph
3 km/h
2 mph
4 km/h
3 mph
4 km/h
4 mph
6 km/h
4 mph
6 km/h
3 mph
5 km/h
4 mph
6 km/h
5 mph
8 km/h
6 mph
10 km/h
8 mph
12 km/h
10 mph
17 km/h
10 mph
15 km/h
10 mph
17 km/h
10 mph
17 km/h
9 mph
14 km/h
8 mph
13 km/h
7 mph
11 km/h
8 mph
12 km/h
7 mph
12 km/h
7 mph
12 km/h
6 mph
9 km/h
5 mph
8 km/h
6 mph
9 km/h
6 mph
9 km/h
5 mph
9 km/h
5 mph
8 km/h
4 mph
7 km/h
4 mph
7 km/h
5 mph
8 km/h
7 mph
12 km/h
9 mph
14 km/h
10 mph
16 km/h
11 mph
18 km/h
12 mph
19 km/h
13 mph
21 km/h
13 mph
21 km/h
12 mph
19 km/h
10 mph
16 km/h
8 mph
13 km/h
6 mph
10 km/h
4 mph
7 km/h
3 mph
5 km/h
4 mph
6 km/h
5 mph
8 km/h
5 mph
8 km/h
5 mph
9 km/h
0%0%0%0%0%0%0%0%0%0%0%0%0%0%0%0%0%0%0%0%0%0%0%0%0%0%0%0%69%72%67%81%0%64%0%60%76%0%0%78%0%0%0%0%0%0%0%0%
6 mi
10 km
6 mi
10 km
6 mi
10 km
6 mi
10 km
6 mi
10 km
6 mi
10 km
6 mi
10 km
6 mi
10 km
6 mi
10 km
6 mi
10 km
6 mi
10 km
6 mi
10 km
6 mi
10 km
6 mi
10 km
6 mi
10 km
6 mi
10 km
6 mi
10 km
6 mi
10 km
6 mi
10 km
6 mi
10 km
6 mi
10 km
6 mi
10 km
6 mi
10 km
6 mi
10 km
6 mi
10 km
6 mi
10 km
6 mi
10 km
6 mi
10 km
6 mi
10 km
6 mi
10 km
6 mi
10 km
6 mi
10 km
6 mi
10 km
6 mi
9 km
6 mi
10 km
6 mi
10 km
6 mi
10 km
6 mi
10 km
6 mi
10 km
6 mi
10 km
6 mi
10 km
6 mi
10 km
6 mi
10 km
6 mi
10 km
6 mi
10 km
6 mi
10 km
6 mi
10 km
6 mi
10 km

Day/Time
Weather
Condition
Temperature
Dew Point
Pressure
Humidity
Wind Direction
Wind Speed
Prob Precip %
Visibility
Prob Precip % = Probability of Precipitation.